Time,TemperatureF,DewpointF,PressureIn,WindDirection,WindDirectionDegrees,WindSpeedMPH,WindSpeedGustMPH,Humidity,HourlyPrecipIn,Conditions,Clouds,dailyrainin,SolarRadiationWatts/m^2,SoftwareType,DateUTC
2013-05-17 00:03:00,69.0,58.0,-100.00,SSW,211,3.0,4.0,68,0.00,,,0.00,0.000000,,2013-05-17 05:03:00,
2013-05-17 00:32:00,68.0,56.0,-100.00,SSW,192,3.0,5.0,65,0.00,,,0.00,0.000000,,2013-05-17 05:32:00,
2013-05-17 00:43:00,68.0,56.0,-100.00,SSW,192,3.0,5.0,65,0.00,,,0.00,0.000000,,2013-05-17 05:43:00,
2013-05-17 00:52:00,68.0,56.0,-100.00,SSW,192,3.0,5.0,65,0.00,,,0.00,0.000000,,2013-05-17 05:52:00,
2013-05-17 01:02:00,68.0,56.0,-100.00,SSW,192,3.0,5.0,65,0.00,,,0.00,0.000000,,2013-05-17 06:02:00,
2013-05-17 01:32:00,66.0,55.0,-100.00,South,177,1.0,4.0,68,0.00,,,0.00,0.000000,,2013-05-17 06:32:00,
2013-05-17 01:42:00,66.0,55.0,-100.00,South,177,1.0,4.0,68,0.00,,,0.00,0.000000,,2013-05-17 06:42:00,
2013-05-17 01:52:00,66.0,55.0,-100.00,South,177,1.0,4.0,68,0.00,,,0.00,0.000000,,2013-05-17 06:52:00,
2013-05-17 02:02:00,66.0,55.0,-100.00,South,177,1.0,4.0,68,0.00,,,0.00,0.000000,,2013-05-17 07:02:00,
2013-05-17 02:32:00,64.0,53.0,-100.00,SE,142,0.0,1.0,68,0.00,,,0.00,0.000000,,2013-05-17 07:32:00,
2013-05-17 02:43:00,64.0,53.0,-100.00,SE,142,0.0,1.0,68,0.00,,,0.00,0.000000,,2013-05-17 07:43:00,
2013-05-17 02:53:00,64.0,53.0,-100.00,SE,142,0.0,1.0,68,0.00,,,0.00,0.000000,,2013-05-17 07:53:00,
2013-05-17 03:02:00,64.0,53.0,-100.00,SE,142,0.0,1.0,68,0.00,,,0.00,0.000000,,2013-05-17 08:02:00,
2013-05-17 03:34:00,63.0,56.0,-100.00,SE,135,2.0,2.0,78,0.00,,,0.00,0.000000,,2013-05-17 08:34:00,
2013-05-17 03:43:00,63.0,56.0,-100.00,SE,135,2.0,2.0,78,0.00,,,0.00,0.000000,,2013-05-17 08:43:00,
2013-05-17 03:52:00,63.0,56.0,-100.00,SE,135,2.0,2.0,78,0.00,,,0.00,0.000000,,2013-05-17 08:52:00,
2013-05-17 04:02:00,63.0,56.0,-100.00,SE,135,2.0,2.0,78,0.00,,,0.00,0.000000,,2013-05-17 09:02:00,
2013-05-17 04:33:00,64.0,57.0,-100.00,SSE,165,0.0,1.0,78,0.00,,,0.00,0.000000,,2013-05-17 09:33:00,
2013-05-17 04:42:00,64.0,57.0,-100.00,SSE,165,0.0,1.0,78,0.00,,,0.00,0.000000,,2013-05-17 09:42:00,
2013-05-17 04:53:00,64.0,57.0,-100.00,SSE,165,0.0,1.0,78,0.00,,,0.00,0.000000,,2013-05-17 09:53:00,
2013-05-17 05:03:00,64.0,57.0,-100.00,SSE,165,0.0,1.0,78,0.00,,,0.00,0.000000,,2013-05-17 10:03:00,
2013-05-17 05:33:00,63.0,56.0,-100.00,South,176,0.0,0.0,77,0.00,,,0.00,0.000000,,2013-05-17 10:33:00,
2013-05-17 05:42:00,63.0,56.0,-100.00,South,176,0.0,0.0,77,0.00,,,0.00,0.000000,,2013-05-17 10:42:00,
2013-05-17 05:54:00,63.0,56.0,-100.00,South,176,0.0,0.0,77,0.00,,,0.00,0.000000,,2013-05-17 10:54:00,
2013-05-17 06:02:00,63.0,56.0,-100.00,South,176,0.0,0.0,77,0.00,,,0.00,0.000000,,2013-05-17 11:02:00,
2013-05-17 06:34:00,63.0,57.0,-100.00,SE,136,1.0,3.0,82,0.00,,,0.00,3.000000,,2013-05-17 11:34:00,
2013-05-17 06:42:00,63.0,57.0,-100.00,SE,136,1.0,3.0,82,0.00,,,0.00,3.000000,,2013-05-17 11:42:00,
2013-05-17 06:53:00,63.0,57.0,-100.00,SE,136,1.0,3.0,82,0.00,,,0.00,3.000000,,2013-05-17 11:53:00,
2013-05-17 07:03:00,63.0,57.0,-100.00,SE,136,1.0,3.0,82,0.00,,,0.00,3.000000,,2013-05-17 12:03:00,
2013-05-17 07:33:00,63.0,57.0,-100.00,SSE,158,1.0,2.0,80,0.00,,,0.00,19.000000,,2013-05-17 12:33:00,
2013-05-17 07:43:00,63.0,57.0,-100.00,SSE,158,1.0,2.0,80,0.00,,,0.00,19.000000,,2013-05-17 12:43:00,
2013-05-17 07:53:00,63.0,57.0,-100.00,SSE,158,1.0,2.0,80,0.00,,,0.00,19.000000,,2013-05-17 12:53:00,
2013-05-17 08:03:00,63.0,57.0,-100.00,SSE,158,1.0,2.0,80,0.00,,,0.00,19.000000,,2013-05-17 13:03:00,
2013-05-17 08:33:00,64.0,58.0,-100.00,SSW,194,2.0,3.0,80,0.00,,,0.00,35.000000,,2013-05-17 13:33:00,
2013-05-17 08:42:00,64.0,58.0,-100.00,SSW,194,2.0,3.0,80,0.00,,,0.00,35.000000,,2013-05-17 13:42:00,
2013-05-17 08:52:00,64.0,58.0,-100.00,SSW,194,2.0,3.0,80,0.00,,,0.00,35.000000,,2013-05-17 13:52:00,
2013-05-17 09:02:00,64.0,58.0,-100.00,SSW,194,2.0,3.0,80,0.00,,,0.00,35.000000,,2013-05-17 14:02:00,
2013-05-17 09:34:00,66.0,61.0,-100.00,SSE,166,1.0,5.0,85,0.00,,,0.00,103.000000,,2013-05-17 14:34:00,
2013-05-17 09:43:00,66.0,61.0,-100.00,SSE,166,1.0,5.0,85,0.00,,,0.00,103.000000,,2013-05-17 14:43:00,
2013-05-17 09:53:00,66.0,61.0,-100.00,SSE,166,1.0,5.0,85,0.00,,,0.00,103.000000,,2013-05-17 14:53:00,
2013-05-17 10:03:00,66.0,61.0,-100.00,SSE,166,1.0,5.0,85,0.00,,,0.00,103.000000,,2013-05-17 15:03:00,
2013-05-17 10:06:00,68.0,62.0,-100.00,SSW,212,3.0,5.0,81,0.00,,,0.00,137.000000,,2013-05-17 15:06:00,
2013-05-17 10:37:00,68.0,62.0,-100.00,SSW,212,3.0,5.0,81,0.00,,,0.00,137.000000,,2013-05-17 15:37:00,
2013-05-17 10:47:00,68.0,62.0,-100.00,SSW,212,3.0,5.0,81,0.00,,,0.00,137.000000,,2013-05-17 15:47:00,
2013-05-17 10:57:00,68.0,62.0,-100.00,SSW,212,3.0,5.0,81,0.00,,,0.00,137.000000,,2013-05-17 15:57:00,
2013-05-17 11:06:00,66.0,64.0,-100.00,SSW,209,3.0,7.0,92,0.03,,,0.03,151.000000,,2013-05-17 16:06:00,
2013-05-17 11:37:00,66.0,64.0,-100.00,SSW,209,3.0,7.0,92,0.03,,,0.03,151.000000,,2013-05-17 16:37:00,
2013-05-17 11:50:00,66.0,64.0,-100.00,SSW,209,3.0,7.0,92,0.03,,,0.03,151.000000,,2013-05-17 16:50:00,
2013-05-17 11:56:00,66.0,64.0,-100.00,SSW,209,3.0,7.0,92,0.03,,,0.03,151.000000,,2013-05-17 16:56:00,
2013-05-17 12:06:00,66.0,66.0,-100.00,South,186,2.0,6.0,99,0.03,,,0.06,165.000000,,2013-05-17 17:06:00,
2013-05-17 12:40:00,66.0,-99.9,-100.00,South,186,2.0,6.0,99,0.03,,,0.06,165.000000,,2013-05-17 17:40:00,
2013-05-17 12:49:00,66.0,66.0,-100.00,South,186,2.0,6.0,99,0.03,,,0.06,165.000000,,2013-05-17 17:49:00,
2013-05-17 13:00:00,66.0,66.0,-100.00,South,186,2.0,6.0,99,0.03,,,0.06,165.000000,,2013-05-17 18:00:00,
2013-05-17 13:06:00,66.0,66.0,-100.00,South,170,2.0,6.0,100,0.14,,,0.20,123.000000,,2013-05-17 18:06:00,
2013-05-17 13:40:00,66.0,-99.9,-100.00,South,170,2.0,6.0,100,0.14,,,0.20,123.000000,,2013-05-17 18:40:00,
2013-05-17 13:50:00,-999.0,-99.9,-100.00,South,170,2.0,6.0,100,0.14,,,0.20,123.000000,,2013-05-17 18:50:00,
2013-05-17 14:00:00,66.0,-99.9,-100.00,South,170,2.0,6.0,100,0.14,,,0.20,123.000000,,2013-05-17 19:00:00,
2013-05-17 14:06:00,66.0,66.0,-100.00,South,180,3.0,7.0,100,0.12,,,0.32,122.000000,,2013-05-17 19:06:00,
2013-05-17 14:40:00,66.0,66.0,-100.00,South,180,3.0,7.0,100,0.12,,,0.32,122.000000,,2013-05-17 19:40:00,
2013-05-17 14:51:00,66.0,66.0,-100.00,South,180,3.0,7.0,100,0.12,,,0.32,122.000000,,2013-05-17 19:51:00,
2013-05-17 15:01:00,-999.0,-99.9,-100.00,South,180,3.0,7.0,100,0.12,,,0.32,122.000000,,2013-05-17 20:01:00,
2013-05-17 15:06:00,68.0,68.0,-100.00,NE,44,1.0,5.0,100,0.04,,,0.36,201.000000,,2013-05-17 20:06:00,
2013-05-17 15:40:00,68.0,68.0,-100.00,NE,44,1.0,5.0,100,0.04,,,0.36,201.000000,,2013-05-17 20:40:00,
2013-05-17 15:50:00,68.0,68.0,-100.00,NE,44,1.0,5.0,100,0.04,,,0.36,201.000000,,2013-05-17 20:50:00,
2013-05-17 15:58:00,68.0,68.0,-100.00,NE,44,1.0,5.0,100,0.04,,,0.36,201.000000,,2013-05-17 20:58:00,
2013-05-17 16:06:00,69.0,69.0,-100.00,ENE,74,2.0,6.0,99,0.00,,,0.36,222.000000,,2013-05-17 21:06:00,
2013-05-17 16:39:00,69.0,69.0,-100.00,ENE,74,2.0,6.0,99,0.00,,,0.36,222.000000,,2013-05-17 21:39:00,
2013-05-17 16:49:00,69.0,69.0,-100.00,ENE,74,2.0,6.0,99,0.00,,,0.36,222.000000,,2013-05-17 21:49:00,
2013-05-17 16:58:00,69.0,69.0,-100.00,ENE,74,2.0,6.0,99,0.00,,,0.36,222.000000,,2013-05-17 21:58:00,
2013-05-17 17:38:00,69.0,69.0,-100.00,SSW,193,2.0,6.0,100,0.00,,,0.36,179.000000,,2013-05-17 22:38:00,
2013-05-17 17:47:00,69.0,69.0,-100.00,SSW,193,2.0,6.0,100,0.00,,,0.36,179.000000,,2013-05-17 22:47:00,
2013-05-17 17:55:00,69.0,69.0,-100.00,SSW,193,2.0,6.0,100,0.00,,,0.36,179.000000,,2013-05-17 22:55:00,
2013-05-17 18:04:00,69.0,69.0,-100.00,SSW,193,2.0,6.0,100,0.00,,,0.36,179.000000,,2013-05-17 23:04:00,
2013-05-17 18:38:00,68.0,68.0,-100.00,South,183,3.0,5.0,100,0.00,,,0.36,111.000000,,2013-05-17 23:38:00,
2013-05-17 18:47:00,68.0,68.0,-100.00,South,183,3.0,5.0,100,0.00,,,0.36,111.000000,,2013-05-17 23:47:00,
2013-05-17 18:54:00,68.0,68.0,-100.00,South,183,3.0,5.0,100,0.00,,,0.36,111.000000,,2013-05-17 23:54:00,
2013-05-17 19:02:00,68.0,68.0,-100.00,South,183,3.0,5.0,100,0.00,,,0.36,111.000000,,2013-05-18 00:02:00,
2013-05-17 19:34:00,67.0,67.0,-100.00,SE,137,1.0,5.0,100,0.00,,,0.36,48.000000,,2013-05-18 00:34:00,
2013-05-17 19:45:00,67.0,67.0,-100.00,SE,137,1.0,5.0,100,0.00,,,0.36,48.000000,,2013-05-18 00:45:00,
2013-05-17 19:54:00,67.0,67.0,-100.00,SE,137,1.0,5.0,100,0.00,,,0.36,48.000000,,2013-05-18 00:54:00,
2013-05-17 20:02:00,67.0,67.0,-100.00,SE,137,1.0,5.0,100,0.00,,,0.36,48.000000,,2013-05-18 01:02:00,
2013-05-17 20:32:00,66.0,66.0,-100.00,SE,128,1.0,3.0,100,0.00,,,0.36,4.000000,,2013-05-18 01:32:00,
2013-05-17 20:43:00,66.0,66.0,-100.00,SE,128,1.0,3.0,100,0.00,,,0.36,4.000000,,2013-05-18 01:43:00,
2013-05-17 20:52:00,66.0,66.0,-100.00,SE,128,1.0,3.0,100,0.00,,,0.36,4.000000,,2013-05-18 01:52:00,
2013-05-17 21:02:00,66.0,66.0,-100.00,SE,128,1.0,3.0,100,0.00,,,0.36,4.000000,,2013-05-18 02:02:00,
2013-05-17 21:32:00,65.0,65.0,-100.00,ENE,67,1.0,3.0,100,0.00,,,0.36,0.000000,,2013-05-18 02:32:00,
2013-05-17 21:43:00,65.0,65.0,-100.00,ENE,67,1.0,3.0,100,0.00,,,0.36,0.000000,,2013-05-18 02:43:00,
2013-05-17 21:54:00,65.0,65.0,-100.00,ENE,67,1.0,3.0,100,0.00,,,0.36,0.000000,,2013-05-18 02:54:00,
2013-05-17 22:02:00,65.0,65.0,-100.00,ENE,67,1.0,3.0,100,0.00,,,0.36,0.000000,,2013-05-18 03:02:00,
2013-05-17 22:33:00,66.0,66.0,-100.00,SSW,207,1.0,3.0,100,0.00,,,0.36,0.000000,,2013-05-18 03:33:00,
2013-05-17 22:43:00,66.0,66.0,-100.00,SSW,207,1.0,3.0,100,0.00,,,0.36,0.000000,,2013-05-18 03:43:00,
2013-05-17 22:53:00,66.0,66.0,-100.00,SSW,207,1.0,3.0,100,0.00,,,0.36,0.000000,,2013-05-18 03:53:00,
2013-05-17 23:02:00,66.0,66.0,-100.00,SSW,207,1.0,3.0,100,0.00,,,0.36,0.000000,,2013-05-18 04:02:00,
2013-05-17 23:33:00,64.0,64.0,-100.00,SE,140,2.0,9.0,100,0.30,,,0.66,0.000000,,2013-05-18 04:33:00,
2013-05-17 23:43:00,64.0,64.0,-100.00,SE,140,2.0,9.0,100,0.30,,,0.66,0.000000,,2013-05-18 04:43:00,
2013-05-17 23:52:00,64.0,64.0,-100.00,SE,140,2.0,9.0,100,0.30,,,0.66,0.000000,,2013-05-18 04:52:00,